EW7948 Weather Reports


time (UTC)temp
F
wind
direction
speed
knots
gust
knots
rain 1hr
in
rain 24hr
in
rain mn
in
humidity
%
barometer
mb
20260901230019 85 164 0.9 5.2 0.00 0.00 0.00 36 1007.5
20260901224534 85 120 0.0 7.8 0.00 0.00 0.00 38 1007.5
20260901223100 85 141 3.5 8.7 0.00 0.00 0.00 37 1007.6
20260901221611 85 210 0.9 4.3 0.00 0.00 0.00 39 1008.0
20260901220003 84 313 2.6 7.0 0.00 0.00 0.00 42 1008.3
20260901214525 85 273 2.6 7.0 0.00 0.00 0.00 38 1008.7
20260901213013 85 217 0.9 4.3 0.00 0.00 0.00 42 1009.0
20260901211526 84 220 1.7 6.1 0.00 0.00 0.00 41 1009.4
20260901210021 81 79 0.0 5.2 0.00 0.00 0.00 47 1009.8
20260901204526 83 248 1.7 6.1 0.00 0.00 0.00 46 1010.0
20260901203024 83 272 0.0 5.2 0.00 0.00 0.00 46 1010.3
20260901201520 82 177 1.7 5.2 0.00 0.00 0.00 47 1010.6
20260901200022 81 219 0.9 6.1 0.00 0.00 0.00 50 1011.0
20260901194515 79 222 1.7 7.0 0.00 0.00 0.00 51 1011.2
20260901193010 79 175 0.0 5.2 0.00 0.00 0.00 52 1011.6
20260901191505 79 186 2.6 6.1 0.00 0.00 0.00 53 1011.8
20260901190018 78 153 2.6 7.0 0.00 0.00 0.00 54 1012.1
20260901184510 78 164 3.5 8.7 0.00 0.00 0.00 56 1012.3
20260901183027 75 150 0.9 8.7 0.00 0.00 0.00 57 1012.6
20260901181505 76 142 0.0 6.1 0.00 0.00 0.00 56 1012.7
20260901180007 75 127 0.0 2.6 0.00 0.00 0.00 57 1013.0
20260901174504 74 131 0.9 8.7 0.00 0.00 0.00 58 1013.1
20260901173006 73 142 0.9 2.6 0.00 0.00 0.00 59 1013.1
20260901171502 74 194 0.0 3.5 0.00 0.00 0.00 59 1013.4
20260901170100 73 130 0.0 1.7 0.00 0.00 0.00 62 1013.4
20260901164559 71 130 0.0 2.6 0.00 0.00 0.00 64 1013.3
20260901163052 69 128 0.0 0.0 0.00 0.00 0.00 66 1013.4
20260901161549 68 128 0.0 0.0 0.00 0.00 0.00 68 1013.5
20260901160047 68 128 0.0 1.7 0.00 0.00 0.00 69 1013.5
20260901154543 66 128 0.0 1.7 0.00 0.00 0.00 74 1013.5
20260901153039 65 126 0.0 0.9 0.00 0.00 0.00 81 1013.4
20260901151541 64 124 0.0 0.9 0.00 0.00 0.00 83 1013.5
20260901150033 63 121 0.0 0.9 0.00 0.00 0.00 85 1013.6
20260901144532 62 121 0.0 0.0 0.00 0.00 0.00 86 1013.5
20260901143030 62 115 0.0 1.7 0.00 0.00 0.00 87 1013.4
20260901141557 61 113 0.0 1.7 0.00 0.00 0.00 88 1013.3
20260901140034 61 108 0.0 1.7 0.00 0.00 0.00 88 1013.1
20260901134535 60 107 0.0 0.9 0.00 0.00 0.00 88 1012.9
20260901133030 60 107 0.0 0.9 0.00 0.00 0.00 88 1012.7
20260901131534 60 107 0.0 0.9 0.00 0.00 0.00 88 1012.4
20260901130032 60 107 0.0 0.0 0.00 0.00 0.00 89 1012.4
20260901124529 60 107 0.0 0.9 0.00 0.01 0.00 89 1012.3
20260901123033 60 107 0.0 0.0 0.00 0.01 0.00 89 1012.4
20260901121538 60 107 0.0 0.9 0.00 0.01 0.00 90 1012.4
20260901120026 60 107 0.0 0.0 0.00 0.01 0.00 90 1012.4
20260901114527 59 107 0.0 0.0 0.00 0.01 0.00 90 1012.4
20260901113026 59 107 0.0 0.0 0.00 0.01 0.00 90 1012.4
20260901111525 59 107 0.0 0.0 0.00 0.01 0.00 90 1012.4
20260901110032 59 107 0.0 0.9 0.00 0.01 0.00 89 1012.4
20260901104528 59 107 0.0 0.9 0.00 0.01 0.00 89 1012.5
20260901103026 59 107 0.0 0.0 0.00 0.01 0.00 88 1012.4
20260901101526 59 107 0.0 1.7 0.00 0.01 0.00 88 1012.5
20260901100019 59 107 0.0 1.7 0.00 0.01 0.00 89 1012.4
20260901094518 59 107 0.0 0.0 0.00 0.01 0.00 88 1012.6
20260901093017 59 107 0.0 0.0 0.00 0.01 0.00 88 1012.3
20260901091615 60 107 0.0 0.0 0.00 0.01 0.00 87 1012.3
20260901090013 60 107 0.0 0.0 0.00 0.01 0.00 87 1012.5
20260901084507 60 107 0.0 0.9 0.00 0.01 0.00 86 1012.2
20260901083006 61 107 0.0 1.7 0.00 0.01 0.00 85 1012.2
20260901081505 61 110 0.0 0.9 0.00 0.01 0.00 84 1012.3
20260901080005 61 110 0.0 2.6 0.00 0.01 0.00 84 1012.1
20260901074502 61 110 0.0 0.0 0.00 0.01 0.00 85 1012.5
20260901073100 61 110 0.0 0.0 0.00 0.01 0.00 85 1012.4
20260901071559 61 110 0.0 2.6 0.00 0.01 0.00 85 1012.2
20260901064555 62 110 0.9 3.5 0.00 0.01 0.00 86 1012.4
20260901063055 62 109 3.5 7.0 0.00 0.01 0.00 85 1012.5
20260901061551 62 113 1.7 6.1 0.00 0.01 0.00 84 1012.7
20260901060049 63 120 0.0 5.2 0.00 0.01 0.00 83 1013.0
20260901054549 63 184 0.0 0.0 0.00 0.01 0.01 82 1013.1
20260901053053 63 184 0.0 2.6 0.00 0.01 0.01 81 1013.1
20260901051549 63 180 1.7 6.1 0.00 0.01 0.01 82 1013.2
20260901050047 63 207 3.5 8.7 0.00 0.01 0.01 82 1012.9
20260901044602 63 212 4.3 7.8 0.00 0.01 0.01 81 1012.9
20260901043046 63 173 3.5 6.1 0.00 0.01 0.01 81 1012.6
20260901041544 64 172 0.0 2.6 0.00 0.01 0.01 81 1012.4
20260901040044 64 171 0.9 5.2 0.00 0.01 0.01 81 1012.2
20260901034543 64 116 0.0 0.9 0.00 0.01 0.01 79 1011.9
20260901033043 64 115 2.6 5.2 0.00 0.01 0.01 78 1011.7
20260901031543 64 317 0.0 0.9 0.00 0.01 0.01 77 1011.7
20260901030050 64 318 0.0 0.9 0.00 0.01 0.01 76 1011.4
20260901024504 65 258 0.9 2.6 0.00 0.01 0.01 77 1011.7
20260901023001 65 252 0.0 0.9 0.00 0.01 0.01 75 1011.6
20260901021501 66 251 0.0 1.7 0.00 0.01 0.01 73 1011.8
20260901020002 67 269 2.6 9.6 0.00 0.01 0.01 70 1012.1
20260901014501 70 248 8.7 14.8 0.00 0.01 0.01 66 1011.9
20260901013101 72 320 0.0 0.9 0.00 0.01 0.01 65 1011.7
20260901011606 72 320 0.0 0.9 0.00 0.01 0.01 62 1011.5
20260901010059 72 320 0.0 1.7 0.00 0.01 0.01 61 1011.8
20260901004604 73 319 0.9 3.5 0.00 0.01 0.01 60 1012.0
20260901003102 73 317 0.0 0.0 0.00 0.01 0.01 60 1012.2
20260901001557 73 318 0.0 0.9 0.00 0.01 0.01 58 1012.2
20260901000057 73 317 0.0 4.3 0.00 0.01 0.01 59 1012.3
20260831234556 73 355 0.9 7.0 0.00 0.01 0.01 59 1012.4
20260831233054 73 340 0.0 4.3 0.00 0.01 0.01 60 1012.3
20260831231559 73 324 3.5 7.0 0.00 0.01 0.01 62 1012.4